Temperature
20 21 20 20 20 20 20 20 20 20 20 20 20 20 20 20 19 19 19 19 19 19 19 19 19 19 19 19 19 19 19 19 19 19 19 19 19 19 19 19 19 18 18
20 21 20 20 20 20 20 20 20 20 20 20 19 19 19 19 19 19 19 19 19 19 19 19 19 19 19 19 19 19 19 19 19 19 19 19 19 19 19 19 19 19 19
21 21 21 20 20 20 20 20 20 20 19 19 19 19 19 19 19 19 19 19 19 19 19 19 19 19 19 19 19 19 19 19 19 19 18 18 19 19 19 19 19 19 19
21 21 21 20 20 20 20 20 19 19 19 19 19 19 19 19 19 19 19 19 19 19 19 19 19 19 19 19 19 19 19 19 19 18 18 18 18 19 19 19 19 19 19
20 20 21 21 20 20 20 20 19 19 19 19 19 19 19 19 19 19 19 19 19 19 18 18 18 18 18 18 19 19 19 19 19 18 18 18 18 19 19 19 19 19 18
20 20 21 21 20 20 20 20 19 19 19 19 19 19 19 19 19 19 19 19 19 18 18 18 18 18 18 18 18 19 19 19 19 18 18 19 19 19 19 19 19 18 18
20 20 21 21 20 20 20 19 19 19 19 19 19 19 19 19 19 19 19 19 19 19 18 18 18 18 18 18 18 18 19 18 18 18 18 18 19 19 19 19 19 18 18
20 20 21 20 20 20 20 19 19 19 19 19 19 19 19 19 19 19 19 19 19 19 18 18 18 18 18 18 18 18 18 18 18 18 18 18 18 18 19 19 18 18 18
21 20 20 20 20 20 20 19 19 19 19 19 19 19 19 19 19 19 19 19 19 19 19 18 18 18 18 18 18 18 18 18 18 18 18 18 18 18 18 18 18 18 18
21 20 20 20 20 20 20 19 19 19 19 19 19 19 19 19 19 19 19 19 19 19 19 19 18 18 18 18 18 18 18 18 18 18 18 18 18 18 18 18 18 18 18
22 21 20 19 19 19 19 19 19 19 19 19 19 19 19 19 18 18 18 19 19 19 19 19 18 18 18 18 19 19 18 18 18 18 18 18 18 18 18 18 18 18 18
23 22 21 20 19 19 19 19 19 19 19 19 19 19 19 18 18 17 18 18 19 19 19 19 19 19 18 18 18 18 18 18 18 18 18 18 18 18 18 18 18 18 18
23 23 22 21 20 19 19 19 19 18 19 18 18 18 18 18 18 18 18 18 19 19 18 18 19 19 18 18 18 18 18 18 18 18 18 18 18 18 18 18 18 18 18
24 23 22 21 21 20 19 19 19 19 19 18 18 18 18 18 18 18 18 18 18 18 18 18 18 19 19 19 19 19 19 19 18 18 17 17 18 18 18 18 18 18 18
24 23 23 22 21 21 20 19 19 19 19 19 19 18 18 18 18 19 18 18 18 18 18 18 18 19 19 19 19 19 19 18 18 18 17 17 17 18 18 18 18 18 18
25 24 23 23 22 21 21 20 19 19 19 19 19 19 19 19 19 19 19 19 18 18 18 18 19 19 19 19 19 19 19 18 18 17 17 17 17 17 17 18 18 18 18
25 24 24 23 22 22 21 20 20 20 19 19 19 19 19 19 19 19 19 19 19 19 19 19 19 19 19 18 18 18 18 18 18 17 17 17 17 17 17 17 17 17 17
25 24 24 23 23 22 22 21 21 20 20 20 19 19 20 20 19 19 19 19 19 19 19 19 19 19 19 18 18 18 18 18 18 18 18 17 17 17 17 17 17 17 17
24 24 24 23 23 22 22 21 21 20 20 20 19 19 20 20 20 19 19 19 19 19 19 18 18 18 18 18 18 18 18 18 18 18 18 17 17 17 17 17 17 17 17
23 23 24 23 23 22 22 21 21 20 20 20 19 19 19 20 19 19 19 19 19 18 18 18 18 18 18 18 18 18 18 18 18 18 18 18 18 17 17 17 17 17 17
22 23 23 23 23 22 22 21 21 20 20 19 19 19 19 19 19 19 19 18 18 18 18 18 18 18 18 18 18 18 18 18 18 18 18 18 18 17 17 17 17 17 17
21 21 22 22 22 22 21 21 20 20 20 19 19 19 19 19 18 18 18 18 18 18 18 18 17 17 17 17 17 17 17 18 18 18 18 18 18 18 18 17 17 17 17
19 20 20 21 22 22 21 21 20 20 19 19 19 18 18 18 18 18 18 18 18 17 17 17 17 17 17 17 17 17 17 17 18 18 18 18 18 17 17 17 17 17 17
17 18 19 20 21 21 21 21 20 20 19 19 19 18 18 18 18 18 17 17 17 17 17 17 17 17 17 17 17 17 17 17 17 17 17 17 17 17 17 17 17 17 17
16 17 18 19 20 21 21 20 20 19 19 19 18 18 18 17 17 17 17 17 17 17 17 16 17 16 16 17 17 17 17 17 16 16 17 17 17 17 17 17 17 17 17
16 16 17 17 18 19 19 19 19 19 18 18 17 17 17 17 17 17 17 17 16 16 16 16 16 16 16 16 16 16 16 16 16 16 16 16 17 17 17 17 17 17 17
Wind_Speed
13 16 17 15 14 14 13 13 13 13 13 12 12 11 11 11 11 11 10 10 10 10 10 9 8 7 7 6 7 7 7 7 7 6 6 6 7 7 8 8 7 7 7
17 18 17 16 15 14 13 12 12 12 12 12 11 11 11 11 11 10 10 10 10 10 10 9 9 8 8 7 8 7 7 6 5 4 4 5 7 8 8 10 11 9 8
18 18 17 16 15 14 13 12 11 11 11 11 12 11 11 11 11 10 10 10 10 10 10 10 9 9 8 8 8 7 6 4 2 1 0 4 8 8 9 9 10 9 9
18 17 16 16 15 14 12 11 11 11 11 11 11 11 11 11 10 10 10 10 10 10 9 9 9 9 8 8 7 6 5 3 0 2 3 7 8 8 8 9 10 9 9
17 16 18 16 15 13 12 11 11 11 11 11 11 11 11 11 10 10 10 10 10 10 10 9 9 9 8 7 6 5 3 1 2 2 7 11 9 7 8 8 8 9 9
16 17 18 15 14 13 12 11 11 11 11 11 11 10 10 10 10 10 10 10 11 11 10 10 9 8 7 6 6 4 2 2 5 1 9 11 8 7 7 7 7 8 9
16 17 17 15 14 13 12 11 11 11 11 11 11 10 10 10 10 10 10 10 10 10 10 9 8 8 7 6 5 3 0 3 5 4 9 11 9 7 7 6 6 7 7
16 16 16 15 13 12 12 11 11 11 11 11 11 10 9 10 10 10 10 10 10 9 8 7 6 6 6 6 4 2 2 6 2 7 12 11 8 7 6 6 6 6 6
16 16 15 14 13 12 11 11 11 11 11 11 11 10 9 9 9 10 10 10 9 8 6 5 4 4 4 5 3 1 3 6 5 5 12 10 8 6 6 5 5 5 5
15 16 15 15 15 13 12 12 11 11 11 11 11 10 10 9 9 10 10 9 8 7 5 4 3 2 3 4 3 3 5 8 5 10 13 10 8 6 5 5 4 5 5
12 13 14 14 13 14 14 14 13 11 11 11 10 10 10 11 11 11 11 11 8 6 5 4 4 4 5 6 6 6 7 8 3 11 12 10 8 6 5 4 4 4 5
12 13 13 13 12 12 11 14 12 12 12 11 12 12 12 12 10 11 15 12 9 7 6 6 7 7 8 9 9 9 8 8 3 12 11 11 7 5 5 4 4 4 5
11 11 12 12 12 10 7 10 8 9 11 12 12 13 12 9 9 12 10 9 9 9 9 8 9 10 12 10 10 10 6 2 5 12 11 10 7 5 4 4 4 3 3
11 11 11 12 12 11 9 7 6 6 6 7 10 13 10 4 4 8 8 11 10 10 8 9 8 11 10 9 7 6 6 2 7 12 11 10 7 4 3 4 4 3 3
10 11 11 12 12 12 9 7 8 6 7 9 10 13 11 4 4 3 4 7 8 9 5 4 5 3 1 2 2 4 4 4 7 12 11 9 7 5 4 4 3 3 2
11 11 11 10 10 11 10 8 7 6 7 8 9 11 13 8 3 4 4 3 3 6 8 6 3 3 1 2 3 4 4 4 6 11 12 10 8 6 5 4 4 3 3
7 10 11 11 10 11 11 11 7 6 8 5 7 11 12 11 7 4 4 5 4 5 7 4 2 3 2 3 2 2 3 4 3 7 11 11 10 7 6 5 4 4 4
2 5 9 11 10 10 9 9 7 6 6 5 7 7 8 11 9 5 3 4 4 5 2 2 1 1 2 2 3 3 3 2 2 2 7 11 12 10 8 7 6 6 5
4 3 6 9 9 9 9 7 6 6 6 5 6 6 5 7 8 6 4 2 3 2 1 3 2 1 1 2 2 2 1 3 2 3 3 8 11 13 12 9 8 7 6
7 5 4 7 9 8 8 7 6 5 6 5 4 5 5 3 6 6 4 2 1 2 1 0 1 1 1 1 2 2 2 2 2 3 2 2 6 11 13 12 11 9 8
8 7 6 5 8 7 6 7 7 6 5 5 5 5 5 3 5 5 4 3 2 2 1 1 1 1 0 1 1 2 2 3 4 4 3 2 2 7 11 13 12 11 10
12 10 9 6 7 9 7 8 7 7 5 5 5 5 6 4 4 5 5 3 3 2 1 2 1 0 1 1 2 1 2 3 4 4 4 3 2 3 4 7 11 12 12
13 14 12 10 7 7 9 7 7 6 5 5 5 4 4 4 4 4 3 3 3 3 3 4 4 4 3 3 3 3 3 4 3 3 5 5 5 3 4 4 6 12 13
13 14 14 13 11 5 7 10 10 8 7 6 6 4 4 3 3 3 3 2 3 3 4 6 6 5 5 5 4 3 4 3 2 2 3 3 5 5 5 3 3 3 10
13 12 12 13 11 8 2 7 9 7 6 5 6 7 5 4 3 3 3 1 2 3 4 6 5 6 6 6 5 4 4 4 4 4 3 3 2 3 3 3 3 3 6
11 11 11 11 11 10 8 3 6 8 9 8 7 7 5 4 2 2 2 2 2 3 4 5 6 6 6 6 6 5 4 3 4 4 4 4 4 3 3 3 3 3 6
Wind_Direction
127 129 139 137 133 127 121 116 114 113 113 111 108 105 101 97 95 94 93 91 89 87 88 88 88 89 91 90 89 84 82 81 79 79 79 72 63 53 42 29 27 81 83
127 130 139 138 136 132 126 122 119 117 115 113 110 106 102 99 97 96 95 94 94 93 91 89 87 88 91 98 100 98 96 95 94 97 99 93 79 64 54 48 52 69 71
124 131 139 140 139 136 133 130 125 121 118 115 111 107 103 100 97 96 94 93 94 93 93 93 91 91 93 101 105 108 108 105 105 82 239 107 96 73 63 59 62 67 69
127 138 140 143 143 142 140 137 133 129 124 119 115 112 108 104 100 97 95 94 95 96 95 94 94 92 93 98 105 109 113 120 146 325 43 86 85 79 71 67 65 67 70
131 136 134 146 146 146 146 145 142 137 131 126 122 118 113 110 105 100 98 96 95 96 96 94 94 93 93 97 104 109 115 160 283 320 87 95 88 86 79 74 70 71 73
130 128 138 147 149 152 153 152 149 144 140 135 129 124 120 117 113 108 102 97 92 90 92 94 94 92 91 97 102 106 124 253 280 99 95 104 105 94 87 82 77 76 75
132 131 143 149 152 156 158 157 155 151 148 143 137 132 129 125 122 118 112 106 99 94 92 92 92 91 94 105 106 103 23 295 270 120 111 112 119 108 97 91 87 83 82
137 137 143 151 156 160 162 163 162 159 156 152 147 143 139 134 131 127 122 116 110 104 100 95 93 94 99 113 114 97 316 302 216 126 113 109 108 102 99 98 98 95 95
140 139 146 156 161 165 168 169 169 167 164 160 157 152 148 143 141 138 134 129 124 120 116 110 105 105 110 122 132 242 293 310 314 127 112 100 97 96 99 105 110 115 112
147 148 157 163 166 170 172 176 176 174 171 168 164 160 157 156 156 154 151 141 139 138 138 139 142 148 153 158 183 238 282 301 303 95 97 92 86 88 96 105 117 126 124
159 156 161 165 168 171 172 172 175 178 177 173 172 172 172 181 178 176 160 148 154 157 164 176 191 203 203 203 215 235 262 261 171 96 93 93 86 85 91 99 113 128 131
166 165 164 166 166 169 173 159 177 180 177 188 184 181 199 208 185 163 145 155 164 175 188 206 218 226 224 213 218 229 248 250 154 108 103 99 91 86 89 95 105 122 129
175 169 165 168 167 165 155 158 176 175 174 196 191 188 207 210 155 139 155 160 178 191 204 208 221 229 220 212 199 204 219 308 87 103 111 106 99 95 96 95 97 103 118
174 173 170 168 169 169 165 165 166 173 177 189 191 197 201 205 188 167 169 173 184 199 207 197 217 221 217 189 204 195 158 132 103 112 118 115 110 107 113 118 112 110 113
167 172 181 174 175 175 167 162 177 177 178 191 190 199 196 184 202 169 178 167 184 181 175 243 243 184 125 68 34 51 82 99 108 115 127 127 123 118 119 123 127 128 140
167 178 179 181 178 171 165 175 184 175 175 189 182 200 194 183 188 156 188 145 199 172 172 219 227 125 131 87 57 50 26 49 105 127 139 139 134 128 126 128 130 131 140
178 180 175 179 183 179 176 182 180 171 175 180 179 205 193 176 183 160 194 156 198 192 186 218 196 133 142 124 125 88 78 23 357 123 140 152 147 134 128 126 126 122 119
212 193 177 181 187 185 175 175 173 175 171 170 174 210 204 174 180 162 174 153 183 181 183 124 24 118 172 169 171 176 146 140 282 113 169 159 153 145 138 132 126 122 119
316 240 192 183 186 184 173 172 173 173 165 164 171 185 214 180 170 144 143 143 173 140 150 162 188 198 207 171 168 151 191 166 147 254 217 151 147 151 150 149 145 140 136
311 286 244 191 185 186 167 175 171 172 165 160 158 163 190 162 146 128 124 135 106 118 121 303 164 116 25 50 280 196 187 195 216 255 335 118 164 163 158 163 165 163 158
318 305 281 220 187 187 174 177 172 171 165 160 157 154 159 150 117 115 129 135 99 106 154 251 270 165 211 330 324 331 304 253 246 204 207 251 224 150 161 173 178 171 167
343 331 306 280 213 196 190 186 176 166 163 156 147 140 144 152 138 131 134 136 138 144 204 257 281 156 209 222 198 214 298 301 276 242 197 196 266 159 196 192 178 170 172
346 342 331 315 283 217 190 183 168 151 154 157 151 144 141 141 133 128 136 147 174 182 207 227 229 215 221 243 228 190 194 232 269 270 226 196 208 206 207 228 195 180 169
347 344 339 333 320 292 197 181 174 170 173 171 158 142 132 125 125 134 134 178 208 208 215 222 224 213 212 228 248 237 230 218 191 281 294 237 205 206 208 212 217 187 162
353 350 345 345 343 344 334 178 175 168 165 144 132 127 125 113 108 124 137 162 234 235 229 230 232 216 205 215 224 232 245 260 243 220 255 284 270 223 206 212 181 195 166
0 359 359 3 7 7 14 78 146 149 142 136 136 135 125 113 96 97 143 165 229 242 244 243 233 226 213 217 224 226 222 223 230 228 227 242 255 255 221 208 185 189 183
Height
1512 1513 1516 1518 1520 1523 1525 1527 1529 1531 1532 1533 1534 1535 1536 1537 1538 1539 1541 1542 1543 1544 1545 1546 1547 1548 1549 1550 1551 1552 1553 1554 1555 1556 1557 1557 1557 1557 1557 1556 1556 1556 1556
1511 1513 1516 1518 1521 1524 1526 1528 1530 1532 1533 1535 1536 1537 1538 1539 1540 1541 1542 1543 1544 1545 1546 1547 1548 1549 1550 1551 1552 1553 1554 1555 1557 1558 1558 1559 1559 1558 1558 1558 1557 1557 1557
1512 1514 1517 1519 1522 1525 1527 1529 1531 1533 1534 1536 1537 1538 1539 1540 1541 1542 1543 1544 1545 1546 1547 1548 1549 1550 1551 1552 1553 1554 1555 1557 1558 1559 1559 1559 1560 1560 1559 1559 1559 1558 1558
1513 1516 1518 1520 1523 1525 1528 1530 1532 1534 1535 1536 1538 1539 1540 1541 1542 1543 1544 1545 1546 1547 1548 1549 1549 1550 1551 1552 1553 1554 1556 1557 1559 1559 1560 1560 1560 1560 1560 1560 1560 1560 1559
1514 1517 1519 1521 1524 1526 1528 1531 1532 1534 1536 1537 1539 1540 1541 1542 1543 1544 1545 1546 1547 1548 1549 1549 1550 1551 1552 1553 1554 1555 1557 1558 1559 1560 1560 1560 1561 1561 1561 1561 1561 1560 1560
1516 1518 1520 1522 1525 1527 1529 1531 1533 1535 1536 1538 1539 1540 1542 1543 1544 1545 1546 1547 1548 1549 1549 1550 1551 1552 1552 1553 1555 1556 1557 1558 1560 1560 1561 1561 1561 1561 1561 1561 1561 1561 1561
1518 1518 1521 1523 1525 1527 1529 1531 1533 1535 1536 1538 1539 1541 1542 1543 1544 1545 1546 1547 1548 1549 1550 1551 1552 1552 1553 1554 1555 1557 1558 1559 1560 1560 1561 1561 1561 1561 1561 1562 1562 1562 1562
1518 1519 1522 1524 1526 1528 1530 1532 1533 1535 1537 1538 1540 1541 1542 1543 1544 1545 1546 1547 1548 1549 1551 1551 1552 1553 1554 1555 1556 1557 1558 1559 1560 1561 1560 1561 1561 1561 1561 1562 1562 1562 1563
1519 1520 1522 1525 1526 1528 1530 1532 1533 1535 1537 1538 1540 1541 1542 1543 1544 1545 1546 1547 1548 1550 1551 1552 1553 1554 1554 1555 1557 1558 1559 1560 1561 1561 1560 1561 1561 1561 1561 1562 1562 1563 1563
1520 1521 1523 1525 1527 1528 1530 1532 1533 1535 1537 1539 1540 1541 1542 1544 1545 1545 1546 1547 1548 1549 1551 1552 1553 1554 1555 1556 1557 1558 1559 1560 1561 1561 1560 1561 1561 1561 1561 1562 1562 1563 1564
1521 1522 1524 1525 1527 1529 1530 1532 1534 1535 1537 1538 1540 1541 1543 1544 1545 1545 1546 1547 1548 1550 1551 1552 1553 1554 1555 1557 1558 1559 1560 1560 1561 1560 1560 1561 1561 1561 1561 1562 1563 1563 1564
1520 1522 1524 1525 1527 1529 1531 1532 1533 1535 1536 1538 1540 1541 1543 1544 1546 1546 1546 1548 1548 1550 1551 1552 1553 1554 1556 1557 1558 1559 1560 1560 1562 1560 1560 1561 1561 1561 1561 1562 1562 1563 1564
1519 1521 1523 1525 1527 1529 1530 1531 1533 1534 1536 1538 1539 1541 1543 1545 1546 1547 1548 1548 1548 1549 1551 1552 1553 1555 1555 1557 1559 1560 1560 1561 1562 1560 1560 1560 1560 1560 1561 1561 1562 1563 1564
1517 1519 1522 1523 1525 1527 1529 1531 1532 1533 1535 1536 1538 1541 1543 1545 1547 1547 1547 1547 1548 1549 1551 1552 1554 1555 1557 1559 1560 1560 1561 1561 1561 1559 1560 1559 1559 1560 1560 1561 1562 1562 1563
1515 1518 1520 1522 1524 1526 1528 1529 1531 1532 1534 1536 1537 1540 1542 1544 1546 1547 1548 1549 1549 1550 1552 1553 1554 1557 1558 1559 1560 1560 1561 1561 1561 1559 1559 1559 1559 1559 1560 1560 1561 1562 1562
1512 1515 1518 1520 1522 1524 1525 1527 1529 1531 1533 1535 1536 1538 1541 1543 1544 1546 1548 1549 1550 1552 1552 1553 1555 1556 1557 1558 1559 1560 1560 1561 1561 1559 1559 1559 1559 1559 1559 1560 1560 1561 1562
1511 1513 1515 1517 1520 1522 1523 1525 1527 1529 1531 1533 1535 1537 1539 1541 1543 1545 1547 1547 1549 1551 1552 1553 1555 1556 1557 1558 1559 1560 1560 1561 1561 1560 1559 1558 1559 1559 1559 1559 1560 1560 1561
1510 1511 1512 1514 1516 1519 1521 1523 1525 1527 1529 1531 1533 1535 1538 1539 1541 1543 1545 1546 1548 1550 1551 1552 1554 1555 1557 1557 1558 1559 1560 1560 1560 1560 1559 1558 1558 1558 1559 1559 1559 1560 1560
1507 1508 1509 1510 1513 1515 1518 1520 1522 1524 1526 1529 1531 1533 1535 1538 1539 1541 1542 1545 1546 1548 1550 1551 1553 1554 1556 1557 1558 1558 1559 1559 1559 1560 1560 1559 1558 1558 1558 1558 1559 1559 1559
1505 1506 1507 1507 1509 1511 1513 1516 1519 1521 1523 1525 1528 1530 1533 1535 1536 1538 1540 1542 1544 1546 1548 1549 1551 1553 1554 1555 1556 1557 1558 1558 1558 1559 1559 1559 1559 1558 1558 1558 1558 1558 1559
1504 1504 1504 1504 1504 1507 1508 1510 1513 1516 1519 1521 1524 1526 1529 1531 1533 1535 1537 1539 1541 1543 1545 1547 1549 1550 1551 1553 1555 1555 1556 1556 1557 1557 1557 1558 1559 1558 1557 1557 1558 1557 1558
1501 1501 1501 1502 1501 1501 1503 1504 1506 1510 1514 1516 1519 1522 1525 1527 1530 1532 1534 1536 1538 1540 1542 1544 1546 1547 1549 1551 1552 1553 1554 1555 1554 1555 1555 1556 1557 1557 1557 1557 1557 1557 1557
1500 1498 1497 1497 1497 1497 1497 1498 1500 1504 1508 1511 1513 1516 1520 1523 1525 1527 1530 1533 1535 1537 1539 1541 1542 1544 1545 1547 1549 1551 1551 1550 1551 1552 1552 1553 1554 1555 1555 1556 1557 1556 1555
1499 1496 1494 1492 1492 1493 1493 1493 1495 1497 1501 1504 1508 1511 1515 1519 1521 1523 1526 1529 1532 1534 1535 1537 1538 1540 1542 1543 1545 1546 1548 1549 1550 1549 1550 1550 1551 1552 1553 1554 1555 1555 1555
1498 1495 1492 1489 1488 1488 1489 1489 1491 1493 1496 1499 1503 1506 1509 1514 1517 1519 1522 1525 1528 1530 1531 1533 1535 1536 1537 1539 1540 1542 1543 1545 1545 1546 1547 1548 1548 1549 1550 1550 1551 1553 1554
1497 1494 1491 1488 1486 1485 1486 1487 1488 1490 1493 1495 1498 1501 1505 1509 1513 1516 1518 1521 1524 1526 1528 1530 1531 1533 1534 1535 1536 1538 1539 1540 1541 1543 1544 1544 1545 1546 1546 1547 1548 1549 1550